Find Starlink 11500

NORAD ID: 62472 Int'l Des: 2024-254 Owner: SPXS Country: US Constellation: starlink operational
LEOCIRCULAR

实时位置

正在加载3D地球...

关于 Starlink 11500

正在加载描述...

即将过境

Passes for default location (London). Set your location on the main map for personalized predictions.

高度历史

Loading altitude history...

两行轨道根数

1 62472U 24254L 26122.41277059 .00214779 00000-0 16331-2 0 9992
2 62472 42.9999 258.8687 0001420 268.8542 91.2163 15.70859653 77321
Epoch: May 2, 2026 • Age: 8 hours

当前状态

高度 359.1 km
速度 7.69 km/s
星下点 -16.90°S, 41.11°W
发射日期 Dec 31, 2024
运行时间 1.3 years
类型 internet

技术详情

分类 Payload
质量 960.00 kg
干质量 910.00 kg
总质量 960.00 kg
长度 0.30 m
直径 4.10 m
跨度 29.00 m
形状 Box + pan
制造商 SPXS
平台类型 Starlink V2MD
阶段状态 In Orbit
所有者/国家 SPXS/US

Most Searched